Location: Ammerl�gen
(47.2167°N, 9.6000°E)
Time: 06:44:30
(UTC+00:00)

RS-15 - Pass Details

Date: 14 December 2021
Orbit: 1882 x 2162 km, 64.8° (Epoch: 17 January)

Event Time Altitude Azimuth Distance (km) Brightness Sun altitude
Exits shadow 01:13:34 38° 45° (NE) 2,897 8.9 -56.4°
Drops below altitude 10° 01:20:00 10° 39° (NE) 4,643 10.4 -55.5°
Sets 01:23:30 0° 38° (NE) 5,670 11.0 -55.0°
